Aeroporto :
LOGIN :

Iscrizione | Disclaimer

   EN    FR    IT 

 










Sommario :    VFR   VFR Marginale   IFR   IFR Intensivo   IFR Molto Intensivo
Visibilità : 
Base nubi : 
>= 8 km
>= 3000ft
5 / 8 km
1000 / 3000 ft
1500m / 5 km
500 / 1000 ft
800 / 1500m
200 / 500 ft
< 800m
< 200 ft
Simboli :   Temporali  Nebbia  Neve Forte  Precipitazioni Forti  Vento > 20 kt
SIGMETs :   Varie  Temporali  Ghiacco  Turbolenza  Onda orograficha  Ceneri Vulcaniche







- Altitudine del aeroporto : 1058 ft
- Codice IATA : SCN


EDDR - Saarbrücken

ULTIMO METAR :
  • 211720Z 28005KT 9999 FEW035 11/05 Q1028 NOSIG

METARs OBSOLETI :
  • 211650Z 28007KT 9999 FEW035 11/04 Q1028 NOSIG
  • 211620Z 28009KT 9999 FEW035 12/04 Q1028 NOSIG
  • 211550Z 26011KT 9999 FEW035 13/05 Q1028 NOSIG
  • 211520Z 28009KT 250V320 9999 SCT035 13/05 Q1028 NOSIG
  • 211450Z 29009KT 9999 SCT035 13/05 Q1028 NOSIG

TAF TAF EDDR
Valido dal 21 a 18 ore il 22 a 18 ore UTC


211700Z 2118/2218 22004KT 9999 BKN040
PROB30
TEMPO 2202/2210 2000 BR SCT002 BKN008
BECMG 2210/2213 04007KT
Nessun NOTAM noto per questo aeroporto.



MetMap, La meteo Aeronautica in un colpo d'occhio ! - Copyright ORBIFLY Dicembre 2007 - Disclaimer

ORBIFLY MET'MAP TEAM :

Programmazione e sviluppo : Alexandra Zaïnal
Concezione e sviluppo : Baudouin d'Aumeries
Co-Programmazione e sviluppo : Marc-Olivier Méhu
Supporto tecnico e logistico : Manuel Goepfert
Aiuto per la traduzione : Arnaldo La Scala

Contatto : metmap@orbifly.com




FONTI E CREDITI :

   NOAA